This is the latest recevied weather packets stored in our database for station/object IONIA-WX. If no packets are shown the sender has not sent any weather packets the latest 10 day(s).
| Time | Temp. | Humidity | Pressure | Rain* | Wind** | Luminosity | Snow |
|---|---|---|---|---|---|---|---|
| 1788483618 | 22.22° C | 90% | 983.7 hPa | 0 mm | - | - | - |
| 1788482717 | 22.22° C | 86% | 983.7 hPa | 0 mm | - | - | - |
| 1788481816 | 22.22° C | 79% | 984.1 hPa | 0 mm | - | - | - |
| 1788480915 | 22.78° C | 79% | 984.1 hPa | 0 mm | - | - | - |
| 1788480016 | 22.78° C | 79% | 984.1 hPa | 0 mm | - | - | - |
| 1788479118 | 23.33° C | 75% | 983.4 hPa | 0 mm | - | - | - |
| 1788478219 | 23.89° C | 77% | 983.1 hPa | 0 mm | - | - | - |
| 1788477318 | 23.89° C | 77% | 983.1 hPa | 0 mm | - | - | - |
| 1788476422 | 23.89° C | 77% | 983.1 hPa | 0 mm | - | - | - |
| 1788475517 | 23.89° C | 80% | 983.6 hPa | 0 mm | - | - | - |
| 1788474619 | 25.56° C | 73% | 983.8 hPa | 0 mm | - | - | - |
| 1788473718 | 25.56° C | 73% | 983.8 hPa | 0 mm | - | - | - |
| 1788472818 | 25.56° C | 73% | 983.8 hPa | 0 mm | - | - | - |
| 1788471918 | 25.56° C | 78% | 984.3 hPa | 0 mm | - | - | - |
| 1788471018 | 26.67° C | 73% | 984.8 hPa | 0 mm | - | - | - |
| 1788470117 | 26.67° C | 73% | 984.8 hPa | 0 mm | - | - | - |
| 1788469216 | 26.67° C | 73% | 984.8 hPa | 0 mm | - | - | - |
| 1788468317 | 26.11° C | 81% | 983.7 hPa | 0.25 mm | - | - | - |
| 1788467417 | 26.11° C | 77% | 984.8 hPa | 0.25 mm | - | - | - |
| 1788466517 | 26.11° C | 77% | 984.9 hPa | 0.25 mm | - | - | - |
| 1788464718 | 27.22° C | 61% | 984.7 hPa | 0 mm | - | - | - |
| 1788463818 | 27.22° C | 61% | 984.7 hPa | 0 mm | - | - | - |
| 1788462916 | 28.89° C | 61% | 985 hPa | 0 mm | - | - | - |
| 1788462023 | 29.44° C | 61% | 985 hPa | 0 mm | - | - | - |
| 1788461117 | 25.56° C | 60% | 984.7 hPa | 0 mm | - | - | - |
* Rain latest hour (hover to see other rain measurements)
** Current wind speed in m/s (hover to see current wind gust speed)